Flag for USA

Past Weather in Old Washington Historic State Park, Arkansas, USA — Yesterday and Last 2 Weeks

Now
69 °F

More clouds than sun.


Feels Like: 69 °F
Forecast: 73 / 50 °F
Wind: 5 mph from Southeast

Location: Texarkana Regional-Webb Field

Current Time: Oct 14, 2019 at 6:18:42 pm

Latest Report: Oct 14, 2019 at 5:22 pm


Visibility: 10 mi

Pressure: 30.00 "Hg

Humidity: 66%

Dew Point: 57 °F

Location of Old Washington Historic State ParkLocation

Past Weather in Old Washington Historic State Park — Graph

°F

Old Washington Historic State Park Temperature Yesterday

Maximum temperature yesterday: 64 °F (at 3:53 pm)
Minimum temperature yesterday: 44 °F (at 12:53 am)
Average temperature yesterday: 53 °F

High & Low Weather Summary for the Past Weeks

 TemperatureHumidityPressure
High95 °F (Oct 2, 2:53 pm)97% (Oct 11, 5:27 am)30.29 "Hg (Oct 11, 5:27 am)
Low38 °F (Oct 12, 6:53 am)23% (Oct 12, 4:53 pm)29.80 "Hg (Oct 10, 4:53 pm)
Average70 °F69%30.03 "Hg
* Reported Sep 29 4:53 pm — Oct 14 4:53 pm, Old Washington Historic State Park. Weather by CustomWeather, © 2019

Note: Actual official high and low records may vary slightly from our data, if they occured in-between our weather recording intervals... More about our weather records

Advertising

Old Washington Historic State Park Weather History for the Previous 24 Hours

Scroll right to see more
 ConditionsComfort  
Time TempWeatherWind HumidityBarometerVisibility
4:53 pm
Mon, Oct 14
70 °FOvercast.6 mph64%30.01 "Hg10 mi
3:53 pm72 °FPartly sunny.5 mph57%30.00 "Hg10 mi
2:53 pm72 °FPartly sunny.7 mph57%30.00 "Hg10 mi
1:53 pm71 °FPassing clouds.3 mph57%30.03 "Hg10 mi
12:53 pm68 °FSunny.6 mph63%30.05 "Hg10 mi
11:53 am63 °FSunny.6 mph73%30.07 "Hg10 mi
10:53 am60 °FSunny.5 mph78%30.08 "Hg10 mi
9:53 am55 °FSunny.3 mph93%30.08 "Hg10 mi
8:53 am52 °FSunny.3 mph97%30.07 "Hg10 mi
7:53 am50 °FSunny.No wind96%30.06 "Hg10 mi
6:53 am50 °FClear.3 mph96%30.05 "Hg10 mi
5:53 am51 °FClear.5 mph96%30.05 "Hg8 mi
4:53 am51 °FFog.3 mph92%30.04 "Hg5 mi
3:53 am51 °FClear.No wind96%30.04 "Hg10 mi
2:53 am52 °FClear.5 mph93%30.03 "Hg8 mi
1:53 am52 °FClear.No wind97%30.04 "Hg10 mi
12:53 am53 °FClear.5 mph93%30.04 "Hg10 mi
11:53 pm
Sun, Oct 13
52 °FClear.3 mph93%30.06 "Hg10 mi
10:53 pm54 °FClear.6 mph93%30.05 "Hg10 mi
9:53 pm54 °FClear.5 mph93%30.05 "Hg10 mi
8:53 pm54 °FClear.No wind93%30.04 "Hg10 mi
7:53 pm55 °FClear.No wind90%30.03 "Hg10 mi
6:53 pm58 °FClear.3 mph78%30.01 "Hg10 mi
Weather by CustomWeather, © 2019

See weather overview